START_TIME,STEP,MOV.,AL01,t_acc.,AL02,t_acc.,E37,t_acc.,H21,t_acc.
1980-11-13 15:00:22.850 ,5,0,0.,24.0,0.,24.0,0.,24.0,0.,24.0
1980-11-13 15:00:46.850 ,6,1,0.,24.0,0.,24.0,0.,24.0,0.,24.0
1980-11-13 15:01:10.850 ,6,0,0.,24.0,0.,24.0,0.,24.0,0.,24.0
1980-11-13 15:01:34.850 ,7,1,2.,24.0,0.,24.0,0.,24.0,0.,24.0
1980-11-13 15:01:58.850 ,7,0,8.,24.0,0.,24.0,0.,24.0,0.,24.0
1980-11-13 15:02:22.850 ,7,1,12.,24.0,0.,24.0,0.,24.0,0.,24.0
1980-11-13 15:02:46.850 ,7,0,7.,24.0,0.,24.0,0.,24.0,0.,24.0
1980-11-13 15:03:10.850 ,6,1,7.,24.0,1.,24.0,0.,24.0,0.,24.0
1980-11-13 15:03:34.850 ,6,0,0.,24.0,0.,24.0,0.,24.0,0.,24.0
1980-11-13 15:03:58.850 ,5,1,0.,24.0,0.,24.0,0.,24.0,0.,24.0
1980-11-13 15:04:22.850 ,5,0,0.,24.0,0.,24.0,0.,24.0,0.,24.0
1980-11-13 15:04:46.850 ,4,1,0.,24.0,0.,24.0,0.,24.0,0.,24.0
1980-11-13 15:05:10.850 ,4,0,0.,24.0,0.,24.0,0.,24.0,0.,24.0
1980-11-13 15:05:34.850 ,3,1,0.,24.0,0.,24.0,0.,24.0,0.,24.0
1980-11-13 15:05:58.850 ,3,0,0.,24.0,0.,24.0,0.,24.0,0.,24.0
1980-11-13 15:06:22.850 ,2,1,0.,24.0,0.,24.0,0.,24.0,0.,24.0
1980-11-13 15:06:46.850 ,2,0,0.,24.0,0.,24.0,0.,24.0,0.,24.0
1980-11-13 15:07:10.850 ,1,1,0.,24.0,0.,24.0,0.,24.0,0.,24.0
1980-11-13 15:07:34.850 ,1,0,0.,24.0,0.,24.0,0.,24.0,0.,24.0
1980-11-13 15:07:58.850 ,0,1,0.,24.0,0.,24.0,0.,24.0,0.,24.0
1980-11-13 15:08:22.850 ,0,0,0.,24.0,0.,24.0,0.,24.0,0.,24.0
1980-11-13 15:08:46.850 ,0,1,0.,24.0,0.,24.0,0.,24.0,0.,24.0
1980-11-13 15:09:10.850 ,0,0,0.,24.0,0.,24.0,0.,24.0,0.,24.0
1980-11-13 15:09:34.850 ,1,1,0.,24.0,0.,24.0,0.,24.0,0.,24.0
1980-11-13 15:09:58.850 ,1,0,0.,24.0,0.,24.0,0.,24.0,0.,24.0
1980-11-13 15:10:22.850 ,2,1,0.,24.0,0.,24.0,0.,24.0,0.,24.0
1980-11-13 15:10:46.850 ,2,0,0.,24.0,0.,24.0,0.,24.0,0.,24.0
1980-11-13 15:11:10.850 ,3,1,0.,24.0,0.,24.0,0.,24.0,0.,24.0
1980-11-13 15:11:34.850 ,3,0,0.,24.0,0.,24.0,0.,24.0,0.,24.0
1980-11-13 15:11:58.850 ,4,1,0.,24.0,0.,24.0,0.,24.0,0.,24.0
1980-11-13 15:12:22.850 ,4,0,0.,24.0,0.,24.0,0.,24.0,0.,24.0
1980-11-13 15:12:46.850 ,5,1,0.,24.0,0.,24.0,0.,24.0,0.,24.0
1980-11-13 15:13:10.850 ,5,0,0.,24.0,0.,24.0,0.,24.0,0.,24.0
1980-11-13 15:13:34.850 ,6,1,0.,24.0,0.,24.0,0.,24.0,0.,24.0
1980-11-13 15:13:58.850 ,6,0,0.,24.0,0.,24.0,0.,24.0,0.,24.0
1980-11-13 15:14:22.850 ,7,1,4.,24.0,0.,24.0,0.,24.0,0.,24.0
1980-11-13 15:14:46.850 ,7,0,10.,24.0,0.,24.0,0.,24.0,0.,24.0
1980-11-13 15:15:10.850 ,7,1,10.,24.0,0.,24.0,0.,24.0,0.,24.0
1980-11-13 15:15:34.850 ,7,0,14.,24.0,0.,24.0,0.,24.0,0.,24.0
1980-11-13 15:15:58.850 ,6,1,9.,24.0,0.,24.0,0.,24.0,0.,24.0
1980-11-13 15:16:22.850 ,6,0,0.,24.0,0.,24.0,0.,24.0,0.,24.0
1980-11-13 15:16:46.850 ,5,1,0.,24.0,0.,24.0,0.,24.0,0.,24.0
1980-11-13 15:17:10.850 ,5,0,0.,24.0,0.,24.0,0.,24.0,0.,24.0
1980-11-13 15:17:34.860 ,4,1,0.,24.0,0.,24.0,0.,24.0,0.,24.0
1980-11-13 15:17:58.860 ,4,0,0.,24.0,0.,24.0,0.,24.0,0.,24.0
1980-11-13 15:18:22.860 ,3,1,0.,24.0,0.,24.0,0.,24.0,0.,24.0
1980-11-13 15:18:46.860 ,3,0,0.,24.0,0.,24.0,0.,24.0,0.,24.0
1980-11-13 15:19:10.860 ,2,1,0.,24.0,0.,24.0,0.,24.0,0.,24.0
1980-11-13 15:19:34.860 ,2,0,0.,24.0,0.,24.0,0.,24.0,0.,24.0
1980-11-13 15:19:58.860 ,1,1,0.,24.0,0.,24.0,0.,24.0,0.,24.0
1980-11-13 15:20:22.860 ,1,0,0.,24.0,0.,24.0,0.,24.0,0.,24.0
1980-11-13 15:20:46.860 ,0,1,0.,24.0,0.,24.0,0.,24.0,0.,24.0
1980-11-13 15:21:10.860 ,0,0,0.,24.0,0.,24.0,0.,24.0,0.,24.0
1980-11-13 15:21:34.860 ,0,1,0.,24.0,0.,24.0,0.,24.0,0.,24.0
1980-11-13 15:21:58.860 ,0,0,0.,24.0,0.,24.0,0.,24.0,0.,24.0
1980-11-13 15:22:22.860 ,1,1,0.,24.0,0.,24.0,0.,24.0,0.,24.0
1980-11-13 15:22:46.860 ,1,0,0.,24.0,0.,24.0,0.,24.0,0.,24.0
1980-11-13 15:23:10.860 ,2,1,0.,24.0,0.,24.0,0.,24.0,0.,24.0
1980-11-13 15:23:34.860 ,2,0,0.,24.0,0.,24.0,0.,24.0,0.,24.0
1980-11-13 15:23:58.860 ,3,1,0.,24.0,0.,24.0,0.,24.0,0.,24.0
1980-11-13 15:24:22.860 ,3,0,0.,24.0,0.,24.0,0.,24.0,0.,24.0
1980-11-13 15:24:46.860 ,4,1,0.,24.0,0.,24.0,0.,24.0,0.,24.0
1980-11-13 15:25:10.860 ,4,0,0.,24.0,0.,24.0,0.,24.0,0.,24.0
1980-11-13 15:25:34.860 ,5,1,0.,24.0,0.,24.0,0.,24.0,0.,24.0
1980-11-13 15:25:58.860 ,5,0,0.,24.0,0.,24.0,0.,24.0,0.,24.0
1980-11-13 15:26:22.860 ,6,1,0.,24.0,0.,24.0,0.,24.0,0.,24.0
1980-11-13 15:26:46.860 ,6,0,0.,24.0,0.,24.0,0.,24.0,0.,24.0
1980-11-13 15:27:10.860 ,7,1,2.,24.0,0.,24.0,0.,24.0,0.,24.0
1980-11-13 15:27:34.860 ,7,0,5.,24.0,0.,24.0,0.,24.0,0.,24.0
1980-11-13 15:27:58.860 ,7,1,19.,24.0,0.,24.0,0.,24.0,0.,24.0
1980-11-13 15:28:22.860 ,7,0,10.,24.0,0.,24.0,0.,24.0,0.,24.0
1980-11-13 15:28:46.860 ,6,1,10.,24.0,0.,24.0,0.,24.0,0.,24.0
1980-11-13 15:29:10.860 ,6,0,0.,24.0,0.,24.0,0.,24.0,0.,24.0
1980-11-13 15:29:34.860 ,5,1,0.,24.0,0.,24.0,0.,24.0,0.,24.0
1980-11-13 15:29:58.860 ,5,0,0.,24.0,0.,24.0,0.,24.0,0.,24.0
1980-11-13 15:30:22.860 ,4,1,0.,24.0,0.,24.0,0.,24.0,0.,24.0
1980-11-13 15:30:46.860 ,4,0,0.,24.0,0.,24.0,0.,24.0,0.,24.0
1980-11-13 15:31:10.860 ,3,1,0.,24.0,0.,24.0,0.,24.0,0.,24.0
1980-11-13 15:31:34.860 ,3,0,0.,24.0,0.,24.0,0.,24.0,0.,24.0
1980-11-13 15:31:58.860 ,2,1,0.,24.0,0.,24.0,0.,24.0,0.,24.0
1980-11-13 15:32:22.860 ,2,0,0.,24.0,0.,24.0,0.,24.0,0.,24.0
1980-11-13 15:32:46.860 ,1,1,0.,24.0,0.,24.0,0.,24.0,0.,24.0
1980-11-13 15:33:10.860 ,1,0,0.,24.0,0.,24.0,0.,24.0,0.,24.0
1980-11-13 15:33:34.860 ,0,1,0.,24.0,0.,24.0,0.,24.0,0.,24.0
1980-11-13 15:33:58.860 ,0,0,0.,24.0,0.,24.0,0.,24.0,0.,24.0
1980-11-13 15:34:22.850 ,0,1,0.,24.0,0.,24.0,0.,24.0,0.,24.0
1980-11-13 15:34:46.850 ,0,0,0.,24.0,0.,24.0,0.,24.0,0.,24.0
1980-11-13 15:35:10.850 ,1,1,0.,24.0,0.,24.0,0.,24.0,0.,24.0
1980-11-13 15:35:34.850 ,1,0,0.,24.0,0.,24.0,0.,24.0,0.,24.0
1980-11-13 15:35:58.850 ,2,1,0.,24.0,0.,24.0,0.,24.0,0.,24.0
1980-11-13 15:36:22.850 ,2,0,0.,24.0,0.,24.0,0.,24.0,0.,24.0
1980-11-13 15:36:46.850 ,3,1,0.,24.0,0.,24.0,0.,24.0,0.,24.0
1980-11-13 15:37:10.850 ,3,0,0.,24.0,0.,24.0,0.,24.0,0.,24.0
1980-11-13 15:37:34.850 ,4,1,0.,24.0,0.,24.0,0.,24.0,0.,24.0
1980-11-13 15:37:58.850 ,4,0,0.,24.0,0.,24.0,0.,24.0,0.,24.0
1980-11-13 15:38:22.850 ,5,1,0.,24.0,0.,24.0,0.,24.0,0.,24.0
1980-11-13 15:38:46.850 ,5,0,0.,24.0,0.,24.0,0.,24.0,0.,24.0
1980-11-13 15:39:10.850 ,6,1,0.,24.0,0.,24.0,0.,24.0,0.,24.0
1980-11-13 15:39:34.850 ,6,0,1.,24.0,0.,24.0,0.,24.0,0.,24.0
1980-11-13 15:39:58.850 ,7,1,3.,24.0,0.,24.0,0.,24.0,0.,24.0
1980-11-13 15:40:22.850 ,7,0,12.,24.0,0.,24.0,0.,24.0,0.,24.0
1980-11-13 15:40:46.850 ,7,1,12.,24.0,0.,24.0,0.,24.0,0.,24.0
1980-11-13 15:41:10.850 ,7,0,9.,24.0,0.,24.0,0.,24.0,0.,24.0
1980-11-13 15:41:34.850 ,6,1,4.,24.0,0.,24.0,0.,24.0,0.,24.0
1980-11-13 15:41:58.850 ,6,0,0.,24.0,0.,24.0,0.,24.0,0.,24.0
1980-11-13 15:42:22.850 ,5,1,0.,24.0,0.,24.0,0.,24.0,0.,24.0
1980-11-13 15:42:46.850 ,5,0,0.,24.0,0.,24.0,0.,24.0,0.,24.0
1980-11-13 15:43:10.850 ,4,1,0.,24.0,0.,24.0,0.,24.0,0.,24.0
1980-11-13 15:43:34.850 ,4,0,0.,24.0,0.,24.0,0.,24.0,0.,24.0
1980-11-13 15:43:58.850 ,3,1,0.,24.0,0.,24.0,0.,24.0,0.,24.0
1980-11-13 15:44:22.850 ,3,0,0.,24.0,0.,24.0,0.,24.0,0.,24.0
1980-11-13 15:44:46.850 ,2,1,0.,24.0,0.,24.0,0.,24.0,0.,24.0
1980-11-13 15:45:10.850 ,2,0,0.,24.0,0.,24.0,0.,24.0,0.,24.0
1980-11-13 15:45:34.850 ,1,1,0.,24.0,0.,24.0,0.,24.0,0.,24.0
1980-11-13 15:45:58.850 ,1,0,0.,24.0,0.,24.0,0.,24.0,0.,24.0
1980-11-13 15:46:22.850 ,0,1,0.,24.0,0.,24.0,0.,24.0,0.,24.0
1980-11-13 15:46:46.850 ,0,0,0.,24.0,0.,24.0,0.,24.0,0.,24.0
1980-11-13 15:47:10.850 ,0,1,0.,24.0,0.,24.0,0.,24.0,0.,24.0
1980-11-13 15:47:34.850 ,0,0,0.,24.0,0.,24.0,0.,24.0,0.,24.0
1980-11-13 15:47:58.850 ,1,1,0.,24.0,0.,24.0,0.,24.0,0.,24.0
1980-11-13 15:48:22.850 ,1,0,0.,24.0,0.,24.0,0.,24.0,0.,24.0
1980-11-13 15:48:46.850 ,2,1,0.,24.0,0.,24.0,0.,24.0,0.,24.0
1980-11-13 15:49:10.850 ,2,0,0.,24.0,0.,24.0,0.,24.0,0.,24.0
1980-11-13 15:49:34.850 ,3,1,0.,24.0,0.,24.0,0.,24.0,0.,24.0
1980-11-13 15:49:58.850 ,3,0,0.,24.0,0.,24.0,0.,24.0,0.,24.0
1980-11-13 15:50:22.850 ,4,1,0.,24.0,0.,24.0,0.,24.0,0.,24.0
1980-11-13 15:50:46.850 ,4,0,0.,24.0,0.,24.0,0.,24.0,0.,24.0
1980-11-13 15:51:10.850 ,5,1,0.,24.0,0.,24.0,0.,24.0,0.,24.0
1980-11-13 15:51:34.850 ,5,0,0.,24.0,0.,24.0,0.,24.0,0.,24.0
1980-11-13 15:51:58.850 ,6,1,0.,24.0,0.,24.0,0.,24.0,0.,24.0
1980-11-13 15:52:22.850 ,0,0,0.,24.0,0.,24.0,0.,24.0,0.,24.0
1980-11-13 15:53:21.050 ,0,0,3.,24.0,0.,24.0,0.,24.0,0.,24.0
1980-11-13 15:53:34.850 ,7,1,9.,24.0,0.,24.0,0.,24.0,0.,24.0
1980-11-13 15:53:58.850 ,7,0,13.,24.0,0.,24.0,0.,24.0,0.,24.0
1980-11-13 15:54:22.850 ,6,1,4.,24.0,0.,24.0,0.,24.0,0.,24.0
1980-11-13 15:54:46.850 ,6,0,0.,24.0,0.,24.0,0.,24.0,0.,24.0
1980-11-13 15:55:10.850 ,5,1,0.,24.0,0.,24.0,0.,24.0,0.,24.0
1980-11-13 15:55:34.850 ,5,0,0.,24.0,0.,24.0,0.,24.0,0.,24.0
1980-11-13 15:55:58.850 ,4,1,0.,24.0,0.,24.0,0.,24.0,0.,24.0
1980-11-13 15:56:22.850 ,4,0,0.,24.0,0.,24.0,0.,24.0,0.,24.0
1980-11-13 15:56:46.850 ,3,1,0.,24.0,0.,24.0,0.,24.0,0.,24.0
1980-11-13 15:57:10.850 ,3,0,0.,24.0,0.,24.0,0.,24.0,0.,24.0
1980-11-13 15:57:34.850 ,2,1,0.,24.0,0.,24.0,0.,24.0,0.,24.0
1980-11-13 15:57:58.850 ,2,0,0.,24.0,0.,24.0,0.,24.0,0.,24.0
1980-11-13 15:58:22.850 ,1,1,0.,24.0,0.,24.0,0.,24.0,0.,24.0
1980-11-13 15:58:46.850 ,1,0,0.,24.0,0.,24.0,0.,24.0,0.,24.0
1980-11-13 15:59:10.850 ,0,1,0.,24.0,0.,24.0,0.,24.0,0.,24.0
1980-11-13 15:59:34.850 ,0,0,0.,24.0,0.,24.0,0.,24.0,0.,24.0
1980-11-13 15:59:58.850 ,0,1,0.,24.0,0.,24.0,0.,24.0,0.,24.0
1980-11-13 16:00:22.860 ,0,0,0.,24.0,0.,24.0,0.,24.0,0.,24.0
1980-11-13 16:00:46.860 ,1,1,0.,24.0,0.,24.0,0.,24.0,0.,24.0
1980-11-13 16:01:10.860 ,1,0,0.,24.0,0.,24.0,0.,24.0,0.,24.0
1980-11-13 16:01:34.860 ,2,1,0.,24.0,0.,24.0,0.,24.0,0.,24.0
1980-11-13 16:01:58.860 ,2,0,0.,24.0,0.,24.0,0.,24.0,0.,24.0
1980-11-13 16:02:22.850 ,3,1,0.,24.0,0.,24.0,0.,24.0,0.,24.0
1980-11-13 16:02:46.850 ,3,0,0.,24.0,0.,24.0,0.,24.0,0.,24.0
1980-11-13 16:03:10.850 ,4,1,0.,24.0,0.,24.0,0.,24.0,0.,24.0
1980-11-13 16:03:34.850 ,4,0,0.,24.0,0.,24.0,0.,24.0,0.,24.0
1980-11-13 16:03:58.850 ,5,1,0.,24.0,0.,24.0,0.,24.0,0.,24.0
1980-11-13 16:04:22.860 ,5,0,0.,24.0,0.,24.0,0.,24.0,0.,24.0
1980-11-13 16:04:46.860 ,6,1,0.,24.0,0.,24.0,0.,24.0,0.,24.0
1980-11-13 16:05:10.860 ,6,0,0.,24.0,0.,24.0,0.,24.0,0.,24.0
1980-11-13 16:05:34.860 ,7,1,2.,24.0,0.,24.0,0.,24.0,0.,24.0
1980-11-13 16:05:58.860 ,7,0,8.,24.0,0.,24.0,0.,24.0,0.,24.0
1980-11-13 16:06:22.860 ,7,1,7.,24.0,0.,24.0,0.,24.0,0.,24.0
1980-11-13 16:06:46.860 ,7,0,5.,24.0,0.,24.0,0.,24.0,0.,24.0
1980-11-13 16:07:10.860 ,6,1,4.,24.0,0.,24.0,0.,24.0,0.,24.0
1980-11-13 16:07:34.860 ,6,0,0.,24.0,0.,24.0,0.,24.0,0.,24.0
1980-11-13 16:07:58.860 ,5,1,0.,24.0,0.,24.0,0.,24.0,0.,24.0
1980-11-13 16:08:22.860 ,5,0,0.,24.0,0.,24.0,0.,24.0,0.,24.0
1980-11-13 16:08:46.850 ,4,1,0.,24.0,0.,24.0,0.,24.0,0.,24.0
1980-11-13 16:09:10.850 ,4,0,0.,24.0,0.,24.0,0.,24.0,0.,24.0
1980-11-13 16:09:34.850 ,3,1,0.,24.0,0.,24.0,0.,24.0,0.,24.0
1980-11-13 16:09:58.850 ,3,0,0.,24.0,0.,24.0,0.,24.0,0.,24.0
1980-11-13 16:10:22.850 ,2,1,0.,24.0,0.,24.0,0.,24.0,0.,24.0
1980-11-13 16:10:46.850 ,2,0,0.,24.0,0.,24.0,0.,24.0,0.,24.0
1980-11-13 16:11:10.850 ,1,1,0.,24.0,0.,24.0,0.,24.0,0.,24.0
1980-11-13 16:11:34.850 ,1,0,0.,24.0,0.,24.0,0.,24.0,0.,24.0
1980-11-13 16:11:58.850 ,0,1,0.,24.0,0.,24.0,0.,24.0,0.,24.0
1980-11-13 16:12:22.850 ,0,0,0.,24.0,0.,24.0,0.,24.0,0.,24.0
1980-11-13 16:12:46.850 ,0,1,0.,24.0,0.,24.0,0.,24.0,0.,24.0
1980-11-13 16:13:10.850 ,0,0,0.,24.0,0.,24.0,0.,24.0,0.,24.0
1980-11-13 16:13:34.850 ,1,1,0.,24.0,0.,24.0,0.,24.0,0.,24.0
1980-11-13 16:13:58.850 ,1,0,1.,24.0,0.,24.0,0.,24.0,0.,24.0
1980-11-13 16:14:22.850 ,2,1,0.,24.0,0.,24.0,0.,24.0,0.,24.0
1980-11-13 16:14:46.850 ,2,0,0.,24.0,0.,24.0,0.,24.0,0.,24.0
1980-11-13 16:15:10.850 ,3,1,0.,24.0,0.,24.0,0.,24.0,0.,24.0
1980-11-13 16:15:34.850 ,3,0,0.,24.0,0.,24.0,0.,24.0,0.,24.0
1980-11-13 16:15:58.850 ,4,1,0.,24.0,0.,24.0,0.,24.0,0.,24.0
1980-11-13 16:16:22.850 ,4,0,0.,24.0,0.,24.0,0.,24.0,0.,24.0
1980-11-13 16:16:46.850 ,5,1,0.,24.0,0.,24.0,0.,24.0,0.,24.0
1980-11-13 16:17:10.850 ,5,0,0.,24.0,0.,24.0,0.,24.0,0.,24.0
1980-11-13 16:17:34.860 ,6,1,0.,24.0,0.,24.0,0.,24.0,0.,24.0
1980-11-13 16:17:58.860 ,6,0,0.,24.0,0.,24.0,0.,24.0,0.,24.0
1980-11-13 16:18:22.860 ,7,1,0.,24.0,0.,24.0,0.,24.0,0.,24.0
1980-11-13 16:18:46.860 ,7,0,11.,24.0,0.,24.0,0.,24.0,0.,24.0
1980-11-13 16:19:10.860 ,7,1,11.,24.0,0.,24.0,0.,24.0,0.,24.0
1980-11-13 16:19:34.860 ,7,0,9.,24.0,0.,24.0,0.,24.0,0.,24.0
1980-11-13 16:19:58.860 ,6,1,10.,24.0,0.,24.0,0.,24.0,0.,24.0
1980-11-13 16:20:22.860 ,6,0,0.,24.0,0.,24.0,0.,24.0,0.,24.0
1980-11-13 16:20:46.860 ,5,1,0.,24.0,0.,24.0,0.,24.0,0.,24.0
1980-11-13 16:21:10.860 ,5,0,0.,24.0,0.,24.0,0.,24.0,0.,24.0
1980-11-13 16:21:34.860 ,4,1,0.,24.0,0.,24.0,0.,24.0,0.,24.0
1980-11-13 16:21:58.860 ,4,0,0.,24.0,0.,24.0,0.,24.0,0.,24.0
1980-11-13 16:22:22.860 ,3,1,0.,24.0,0.,24.0,0.,24.0,0.,24.0
1980-11-13 16:22:46.860 ,3,0,0.,24.0,0.,24.0,0.,24.0,0.,24.0
1980-11-13 16:23:10.860 ,2,1,0.,24.0,0.,24.0,0.,24.0,0.,24.0
1980-11-13 16:23:34.860 ,2,0,0.,24.0,0.,24.0,0.,24.0,0.,24.0
1980-11-13 16:23:58.860 ,1,1,0.,24.0,0.,24.0,0.,24.0,0.,24.0
1980-11-13 16:24:22.860 ,1,0,0.,24.0,0.,24.0,0.,24.0,0.,24.0
1980-11-13 16:24:46.860 ,0,1,0.,24.0,0.,24.0,0.,24.0,0.,24.0
1980-11-13 16:25:10.860 ,0,0,0.,24.0,0.,24.0,0.,24.0,0.,24.0
1980-11-13 16:25:34.860 ,0,1,0.,24.0,0.,24.0,0.,24.0,0.,24.0
1980-11-13 16:25:58.860 ,0,0,0.,24.0,0.,24.0,0.,24.0,0.,24.0
1980-11-13 16:26:22.860 ,1,1,0.,24.0,0.,24.0,0.,24.0,0.,24.0
1980-11-13 16:26:46.860 ,1,0,0.,24.0,0.,24.0,0.,24.0,0.,24.0
1980-11-13 16:27:10.860 ,2,1,0.,24.0,0.,24.0,0.,24.0,0.,24.0
1980-11-13 16:27:34.860 ,2,0,0.,24.0,0.,24.0,0.,24.0,0.,24.0
1980-11-13 16:27:58.860 ,3,1,0.,24.0,0.,24.0,0.,24.0,0.,24.0
1980-11-13 16:28:22.860 ,3,0,0.,24.0,0.,24.0,0.,24.0,0.,24.0
1980-11-13 16:28:46.860 ,4,1,0.,24.0,0.,24.0,0.,24.0,0.,24.0
1980-11-13 16:29:10.860 ,4,0,0.,24.0,0.,24.0,0.,24.0,0.,24.0
1980-11-13 16:29:34.860 ,5,1,0.,24.0,0.,24.0,0.,24.0,0.,24.0
1980-11-13 16:29:58.860 ,5,0,0.,24.0,0.,24.0,0.,24.0,0.,24.0
1980-11-13 16:30:22.860 ,6,1,0.,24.0,0.,24.0,0.,24.0,0.,24.0
1980-11-13 16:30:46.860 ,6,0,0.,24.0,0.,24.0,0.,24.0,0.,24.0
1980-11-13 16:31:10.860 ,7,1,3.,24.0,0.,24.0,0.,24.0,0.,24.0
1980-11-13 16:31:34.860 ,7,0,11.,24.0,0.,24.0,0.,24.0,0.,24.0
1980-11-13 16:31:58.860 ,7,1,5.,24.0,0.,24.0,0.,24.0,0.,24.0
1980-11-13 16:32:22.860 ,7,0,10.,24.0,0.,24.0,0.,24.0,0.,24.0
1980-11-13 16:32:46.860 ,6,1,8.,24.0,0.,24.0,0.,24.0,0.,24.0
1980-11-13 16:33:10.860 ,6,0,0.,24.0,0.,24.0,0.,24.0,0.,24.0
1980-11-13 16:33:34.860 ,5,1,0.,24.0,0.,24.0,0.,24.0,0.,24.0
1980-11-13 16:33:58.860 ,5,0,0.,24.0,0.,24.0,0.,24.0,0.,24.0
1980-11-13 16:34:22.860 ,4,1,0.,24.0,0.,24.0,0.,24.0,0.,24.0
1980-11-13 16:34:46.860 ,4,0,0.,24.0,0.,24.0,0.,24.0,0.,24.0
1980-11-13 16:35:10.860 ,3,1,0.,24.0,0.,24.0,0.,24.0,0.,24.0
1980-11-13 16:35:34.860 ,3,0,0.,24.0,0.,24.0,0.,24.0,0.,24.0
1980-11-13 16:35:58.860 ,2,1,0.,24.0,0.,24.0,0.,24.0,0.,24.0
1980-11-13 16:36:22.860 ,2,0,0.,24.0,0.,24.0,0.,24.0,0.,24.0
1980-11-13 16:36:46.860 ,1,1,1.,24.0,0.,24.0,0.,24.0,0.,24.0
1980-11-13 16:37:10.860 ,1,0,0.,24.0,0.,24.0,0.,24.0,0.,24.0
1980-11-13 16:37:34.860 ,0,1,0.,24.0,0.,24.0,0.,24.0,0.,24.0
1980-11-13 16:37:58.860 ,0,0,0.,24.0,0.,24.0,0.,24.0,0.,24.0
1980-11-13 16:38:22.860 ,0,1,0.,24.0,0.,24.0,0.,24.0,0.,24.0
1980-11-13 16:38:46.860 ,0,0,0.,24.0,0.,24.0,0.,24.0,0.,24.0
1980-11-13 16:39:10.860 ,1,1,0.,24.0,0.,24.0,0.,24.0,0.,24.0
1980-11-13 16:39:34.860 ,1,0,0.,24.0,0.,24.0,0.,24.0,0.,24.0
1980-11-13 16:39:58.860 ,2,1,0.,24.0,0.,24.0,0.,24.0,0.,24.0
1980-11-13 16:40:22.860 ,2,0,0.,24.0,0.,24.0,0.,24.0,0.,24.0
1980-11-13 16:40:46.860 ,3,1,0.,24.0,0.,24.0,0.,24.0,0.,24.0
1980-11-13 16:41:10.860 ,0,0,0.,24.0,0.,24.0,0.,24.0,0.,24.0
1980-11-13 16:45:39.060 ,0,0,9.,24.0,0.,24.0,0.,24.0,0.,24.0
1980-11-13 16:45:58.860 ,0,0,0.,24.0,0.,24.0,0.,24.0,0.,24.0
1980-11-13 16:46:22.860 ,5,1,0.,24.0,0.,24.0,0.,24.0,0.,24.0
1980-11-13 16:46:46.860 ,5,0,0.,24.0,0.,24.0,0.,24.0,0.,24.0
1980-11-13 16:47:10.860 ,4,1,0.,24.0,0.,24.0,0.,24.0,0.,24.0
1980-11-13 16:47:34.860 ,4,0,0.,24.0,0.,24.0,0.,24.0,0.,24.0
1980-11-13 16:47:58.860 ,3,1,0.,24.0,0.,24.0,0.,24.0,0.,24.0
1980-11-13 16:48:22.860 ,3,0,0.,24.0,0.,24.0,0.,24.0,0.,24.0
1980-11-13 16:48:46.860 ,2,1,0.,24.0,0.,24.0,0.,24.0,0.,24.0
1980-11-13 16:49:10.860 ,2,0,0.,24.0,0.,24.0,0.,24.0,0.,24.0
1980-11-13 16:49:34.860 ,1,1,0.,24.0,0.,24.0,0.,24.0,0.,24.0
1980-11-13 16:49:58.860 ,1,0,0.,24.0,0.,24.0,0.,24.0,0.,24.0
1980-11-13 16:50:22.860 ,0,1,0.,24.0,0.,24.0,0.,24.0,0.,24.0
1980-11-13 16:50:46.860 ,0,0,0.,24.0,0.,24.0,0.,24.0,0.,24.0
1980-11-13 16:51:10.860 ,0,1,0.,24.0,0.,24.0,0.,24.0,0.,24.0
1980-11-13 16:51:34.860 ,0,0,0.,24.0,0.,24.0,0.,24.0,0.,24.0
1980-11-13 16:51:58.860 ,1,1,0.,24.0,0.,24.0,0.,24.0,0.,24.0
1980-11-13 16:52:22.860 ,1,0,0.,24.0,0.,24.0,0.,24.0,0.,24.0
1980-11-13 16:52:46.860 ,2,1,0.,24.0,0.,24.0,0.,24.0,0.,24.0
1980-11-13 16:53:10.860 ,2,0,0.,24.0,0.,24.0,0.,24.0,0.,24.0
1980-11-13 16:53:34.860 ,3,1,0.,24.0,0.,24.0,0.,24.0,0.,24.0
1980-11-13 16:53:58.860 ,3,0,0.,24.0,0.,24.0,0.,24.0,0.,24.0
1980-11-13 16:54:22.860 ,4,1,0.,24.0,0.,24.0,0.,24.0,0.,24.0
1980-11-13 16:54:46.860 ,4,0,0.,24.0,0.,24.0,0.,24.0,0.,24.0
1980-11-13 16:55:10.860 ,5,1,0.,24.0,0.,24.0,0.,24.0,0.,24.0
1980-11-13 16:55:34.860 ,5,0,0.,24.0,0.,24.0,0.,24.0,0.,24.0
1980-11-13 16:55:58.860 ,6,1,0.,24.0,0.,24.0,0.,24.0,0.,24.0
1980-11-13 16:56:22.860 ,6,0,0.,24.0,0.,24.0,0.,24.0,0.,24.0
1980-11-13 16:56:46.860 ,7,1,6.,24.0,0.,24.0,0.,24.0,0.,24.0
1980-11-13 16:57:10.860 ,7,0,7.,24.0,0.,24.0,0.,24.0,0.,24.0
1980-11-13 16:57:34.860 ,7,1,7.,24.0,0.,24.0,0.,24.0,0.,24.0
1980-11-13 16:57:58.860 ,7,0,11.,24.0,0.,24.0,0.,24.0,0.,24.0
1980-11-13 16:58:22.860 ,6,1,9.,24.0,0.,24.0,0.,24.0,0.,24.0
1980-11-13 16:58:46.860 ,6,0,0.,24.0,0.,24.0,0.,24.0,0.,24.0
1980-11-13 16:59:10.860 ,5,1,0.,24.0,0.,24.0,0.,24.0,0.,24.0
1980-11-13 16:59:34.860 ,5,0,0.,24.0,0.,24.0,0.,24.0,0.,24.0
1980-11-13 16:59:58.860 ,4,1,0.,24.0,0.,24.0,0.,24.0,0.,24.0
1980-11-13 17:00:22.860 ,4,0,0.,24.0,0.,24.0,0.,24.0,0.,24.0
1980-11-13 17:00:46.860 ,3,1,0.,24.0,0.,24.0,0.,24.0,0.,24.0
1980-11-13 17:01:10.860 ,3,0,0.,24.0,0.,24.0,0.,24.0,0.,24.0
1980-11-13 17:01:34.860 ,2,1,0.,24.0,0.,24.0,0.,24.0,0.,24.0
1980-11-13 17:01:58.860 ,2,0,0.,24.0,0.,24.0,0.,24.0,0.,24.0
1980-11-13 17:02:22.860 ,1,1,0.,24.0,0.,24.0,0.,24.0,0.,24.0
1980-11-13 17:02:46.860 ,1,0,0.,24.0,0.,24.0,0.,24.0,0.,24.0
1980-11-13 17:03:10.860 ,0,1,0.,24.0,0.,24.0,0.,24.0,0.,24.0
1980-11-13 17:03:34.860 ,0,0,0.,24.0,0.,24.0,0.,24.0,0.,24.0
1980-11-13 17:03:58.860 ,0,1,0.,24.0,0.,24.0,0.,24.0,0.,24.0
1980-11-13 17:04:22.860 ,0,0,0.,24.0,0.,24.0,0.,24.0,0.,24.0
1980-11-13 17:04:46.860 ,1,1,0.,24.0,0.,24.0,0.,24.0,0.,24.0
1980-11-13 17:05:10.860 ,1,0,0.,24.0,0.,24.0,0.,24.0,0.,24.0
1980-11-13 17:05:34.860 ,2,1,0.,24.0,0.,24.0,0.,24.0,0.,24.0
1980-11-13 17:05:58.860 ,2,0,0.,24.0,0.,24.0,0.,24.0,0.,24.0
1980-11-13 17:06:22.860 ,3,1,0.,24.0,0.,24.0,0.,24.0,0.,24.0
1980-11-13 17:06:46.860 ,3,0,0.,24.0,0.,24.0,0.,24.0,0.,24.0
1980-11-13 17:07:10.860 ,4,1,0.,24.0,0.,24.0,0.,24.0,0.,24.0
1980-11-13 17:07:34.860 ,4,0,0.,24.0,0.,24.0,0.,24.0,0.,24.0
1980-11-13 17:07:58.860 ,5,1,0.,24.0,0.,24.0,0.,24.0,0.,24.0
1980-11-13 17:08:22.860 ,5,0,0.,24.0,0.,24.0,0.,24.0,0.,24.0
1980-11-13 17:08:46.860 ,6,1,0.,24.0,0.,24.0,0.,24.0,0.,24.0
1980-11-13 17:09:10.860 ,6,0,0.,24.0,0.,24.0,0.,24.0,0.,24.0
1980-11-13 17:09:34.860 ,7,1,5.,24.0,0.,24.0,0.,24.0,0.,24.0
1980-11-13 17:09:58.860 ,7,0,10.,24.0,0.,24.0,0.,24.0,0.,24.0
1980-11-13 17:10:22.860 ,7,1,12.,24.0,0.,24.0,0.,24.0,0.,24.0
1980-11-13 17:10:46.860 ,7,0,16.,24.0,0.,24.0,0.,24.0,0.,24.0
1980-11-13 17:11:10.860 ,6,1,6.,24.0,0.,24.0,0.,24.0,0.,24.0
1980-11-13 17:11:34.860 ,6,0,0.,24.0,0.,24.0,0.,24.0,0.,24.0
1980-11-13 17:11:58.860 ,5,1,0.,24.0,0.,24.0,0.,24.0,0.,24.0
1980-11-13 17:12:22.860 ,5,0,0.,24.0,0.,24.0,0.,24.0,0.,24.0
1980-11-13 17:12:46.860 ,4,1,0.,24.0,0.,24.0,0.,24.0,0.,24.0
1980-11-13 17:13:10.860 ,4,0,0.,24.0,0.,24.0,0.,24.0,0.,24.0
1980-11-13 17:13:34.860 ,3,1,0.,24.0,0.,24.0,0.,24.0,0.,24.0
1980-11-13 17:13:58.860 ,3,0,0.,24.0,0.,24.0,0.,24.0,0.,24.0
1980-11-13 17:14:22.860 ,2,1,0.,24.0,0.,24.0,0.,24.0,0.,24.0
1980-11-13 17:14:46.860 ,2,0,0.,24.0,0.,24.0,0.,24.0,0.,24.0
1980-11-13 17:15:10.860 ,1,1,0.,24.0,0.,24.0,0.,24.0,0.,24.0
1980-11-13 17:15:34.860 ,1,0,0.,24.0,0.,24.0,0.,24.0,0.,24.0
1980-11-13 17:15:58.860 ,0,1,0.,24.0,0.,24.0,0.,24.0,0.,24.0
1980-11-13 17:16:22.860 ,0,0,0.,24.0,0.,24.0,0.,24.0,0.,24.0
1980-11-13 17:16:46.860 ,0,1,0.,24.0,0.,24.0,0.,24.0,0.,24.0
1980-11-13 17:17:10.860 ,0,0,0.,24.0,0.,24.0,0.,24.0,0.,24.0
1980-11-13 17:17:34.860 ,1,1,0.,24.0,0.,24.0,0.,24.0,0.,24.0
1980-11-13 17:17:58.860 ,1,0,0.,24.0,0.,24.0,0.,24.0,0.,24.0
1980-11-13 17:18:22.860 ,2,1,0.,24.0,0.,24.0,0.,24.0,0.,24.0
1980-11-13 17:18:46.860 ,2,0,0.,24.0,0.,24.0,0.,24.0,0.,24.0
1980-11-13 17:19:10.860 ,3,1,0.,24.0,0.,24.0,0.,24.0,0.,24.0
1980-11-13 17:19:34.860 ,3,0,0.,24.0,0.,24.0,0.,24.0,0.,24.0
1980-11-13 17:19:58.860 ,4,1,0.,24.0,0.,24.0,0.,24.0,0.,24.0
1980-11-13 17:20:22.860 ,4,0,0.,24.0,0.,24.0,0.,24.0,0.,24.0
1980-11-13 17:20:46.860 ,5,1,0.,24.0,0.,24.0,0.,24.0,0.,24.0
1980-11-13 17:21:10.860 ,5,0,0.,24.0,0.,24.0,0.,24.0,0.,24.0
1980-11-13 17:21:34.860 ,6,1,0.,24.0,0.,24.0,0.,24.0,0.,24.0
1980-11-13 17:21:58.860 ,6,0,0.,24.0,0.,24.0,0.,24.0,0.,24.0
1980-11-13 17:22:22.860 ,7,1,5.,24.0,0.,24.0,0.,24.0,0.,24.0
1980-11-13 17:22:46.860 ,7,0,11.,24.0,0.,24.0,0.,24.0,0.,24.0
1980-11-13 17:23:10.860 ,7,1,13.,24.0,0.,24.0,0.,24.0,0.,24.0
1980-11-13 17:23:34.860 ,7,0,10.,24.0,0.,24.0,0.,24.0,0.,24.0
1980-11-13 17:23:58.860 ,6,1,3.,24.0,0.,24.0,0.,24.0,0.,24.0
1980-11-13 17:24:22.860 ,6,0,0.,24.0,0.,24.0,0.,24.0,0.,24.0
1980-11-13 17:24:46.860 ,5,1,0.,24.0,0.,24.0,0.,24.0,0.,24.0
1980-11-13 17:25:10.860 ,5,0,0.,24.0,0.,24.0,0.,24.0,0.,24.0
1980-11-13 17:25:34.860 ,4,1,0.,24.0,0.,24.0,0.,24.0,0.,24.0
1980-11-13 17:25:58.860 ,4,0,0.,24.0,0.,24.0,0.,24.0,0.,24.0
1980-11-13 17:26:22.860 ,3,1,0.,24.0,0.,24.0,0.,24.0,0.,24.0
1980-11-13 17:26:46.860 ,3,0,0.,24.0,0.,24.0,0.,24.0,0.,24.0
1980-11-13 17:27:10.860 ,2,1,0.,24.0,0.,24.0,0.,24.0,0.,24.0
1980-11-13 17:27:34.860 ,2,0,0.,24.0,0.,24.0,0.,24.0,0.,24.0
1980-11-13 17:27:58.860 ,1,1,0.,24.0,0.,24.0,0.,24.0,0.,24.0
1980-11-13 17:28:22.860 ,1,0,0.,24.0,0.,24.0,0.,24.0,0.,24.0
1980-11-13 17:28:46.860 ,0,1,0.,24.0,0.,24.0,0.,24.0,0.,24.0
1980-11-13 17:29:10.860 ,0,0,0.,24.0,0.,24.0,0.,24.0,0.,24.0
1980-11-13 17:29:34.860 ,0,1,0.,24.0,0.,24.0,0.,24.0,0.,24.0
1980-11-13 17:29:58.860 ,0,0,0.,24.0,0.,24.0,0.,24.0,0.,24.0
1980-11-13 17:30:22.860 ,1,1,0.,24.0,0.,24.0,0.,24.0,0.,24.0
1980-11-13 17:30:46.860 ,1,0,0.,24.0,0.,24.0,0.,24.0,0.,24.0
1980-11-13 17:31:10.860 ,2,1,0.,24.0,0.,24.0,0.,24.0,0.,24.0
1980-11-13 17:31:34.860 ,2,0,0.,24.0,0.,24.0,0.,24.0,0.,24.0
1980-11-13 17:31:58.860 ,3,1,0.,24.0,0.,24.0,0.,24.0,0.,24.0
1980-11-13 17:32:22.860 ,3,0,0.,24.0,0.,24.0,0.,24.0,0.,24.0
1980-11-13 17:32:46.860 ,4,1,0.,24.0,0.,24.0,0.,24.0,0.,24.0
1980-11-13 17:33:10.860 ,4,0,0.,24.0,0.,24.0,0.,24.0,0.,24.0
1980-11-13 17:33:34.860 ,5,1,0.,24.0,0.,24.0,0.,24.0,0.,24.0
1980-11-13 17:33:58.860 ,5,0,0.,24.0,0.,24.0,0.,24.0,0.,24.0
1980-11-13 17:34:22.860 ,6,1,0.,24.0,0.,24.0,0.,24.0,0.,24.0
1980-11-13 17:34:46.860 ,6,0,0.,24.0,0.,24.0,0.,24.0,0.,24.0
1980-11-13 17:35:10.860 ,7,1,1.,24.0,0.,24.0,0.,24.0,0.,24.0
1980-11-13 17:35:34.860 ,7,0,11.,24.0,0.,24.0,0.,24.0,0.,24.0
1980-11-13 17:35:58.860 ,7,1,13.,24.0,1.,24.0,0.,24.0,0.,24.0
1980-11-13 17:36:22.860 ,7,0,8.,24.0,0.,24.0,0.,24.0,0.,24.0
1980-11-13 17:36:46.860 ,6,1,12.,24.0,0.,24.0,0.,24.0,0.,24.0
1980-11-13 17:37:10.860 ,6,0,0.,24.0,0.,24.0,0.,24.0,0.,24.0
1980-11-13 17:37:34.860 ,5,1,0.,24.0,0.,24.0,0.,24.0,0.,24.0
1980-11-13 17:37:58.860 ,5,0,0.,24.0,0.,24.0,0.,24.0,0.,24.0
1980-11-13 17:38:22.860 ,4,1,0.,24.0,0.,24.0,0.,24.0,0.,24.0